Regional Weather Roundup
Issued by NWS Pendleton, OR

Home | Current Version | Previous Version | Text Only | Print | Product List | Glossary On
Versions: 1 2 3 4 5 6 7 8 9 10 11 12 13 14 15 16 17 18 19 20 21 22 23 24 25 26 27 28 29 30 31 32 33 34 35 36 37 38 39 40 41 42 43 44 45 46 47 48 49 50
000
ASUS46 KPDT 151625
RWRPDT
PENDLETON REGIONAL WEATHER ROUNDUP
NATIONAL WEATHER SERVICE PENDLETON OREGON
800 AM PST FRI NOV 15 2019

NOTE: FAIR INDICATES FEW OR NO CLOUDS BELOW 12,000 FEET WITH NO
SIGNIFICANT WEATHER AND/OR OBSTRUCTIONS TO VISIBILITY.

# INDICATES UNOFFICIAL STATION AND DATA

WAZ520-151710-
EAST SLOPES OF WASHINGTON CASCADES

CITY            SKY/WX      TMP DP  RH  WIND    PRES   REMARKS
#BULLFROG       N/A         38  37  96  CALM    N/A
#EASTON DOT     N/A         36  36  100 CALM    N/A
#ELK HTS DOT    N/A         37  37  100 CALM    N/A
#GLENWOOD       N/A         38  37  96  CALM    30.12S
#NELSON 3SW     N/A         35  33  92  CALM    30.27F
#NILE           N/A         37  35  92  CALM    29.36S
#TROUT LAKE 1NE N/A         38  37  96  CALM    30.12
#TROUT LAKE 1E  N/A         38  36  92  CALM    30.10R
$$

WAZ521-151710-
SIMCOE HIGHLANDS

CITY            SKY/WX      TMP DP  RH  WIND    PRES   REMARKS
#SATUS PASS DOT N/A         34  33  96  N3      N/A
#CENTERVILLE 1SWN/A         37  34  89  CALM    30.09S
#LYLE 6NE       N/A         39  38  96  CALM    30.13R
#PITT 4SE       N/A         36  35  96  CALM    30.16R
$$

WAZ026-151710-
KITTITAS VALLEY

CITY            SKY/WX      TMP DP  RH  WIND    PRES   REMARKS
ELLENSBURG AP   CLOUDY      41  38  89  N3      30.05R FOG
#ELLENSBURG CWU N/A         39  38  96  CALM    30.03R
#ELLENSBURG 1E  N/A         39  38  96  CALM    30.10R
#KITTITAS 3S    N/A         38  37  96  CALM    30.07R
#MANASTASH RDG  N/A         35  35  100 CALM    N/A
#ROCKY CYN DOT  N/A         39  39  100 W1      N/A
#RYEGRASS DOT   N/A         36  35  96  W14     N/A    WCI 27
#THORP 6N       N/A         38  37  96  CALM    30.08S
$$

WAZ027-151710-
YAKIMA VALLEY

CITY            SKY/WX      TMP DP  RH  WIND    PRES   REMARKS
SUNNYSIDE AP    LGT RAIN    42  40  93  NE6     30.09S
YAKIMA AIRPORT  CLOUDY      43  36  76  CALM    30.08R
YAKIMA-VAGABOND CLOUDY      41  35  79  CALM    30.06R
#MABTON         N/A         44  41  89  SE7     30.08S
#NACHES 2SW     N/A         39  37  92  CALM    30.05R
#OUTLOOK DOT    N/A         42  39  89  CALM    30.05R
#PARKER DOT     N/A         42  37  82  W2      30.07S
#TERRACE HTS    N/A         40  37  89  CALM    30.09R
#TOPPENISH      N/A         42  38  86  CALM    30.02R
#I82 S UMTANUM RN/A         38  35  89  W3      N/A
#ZILLAH DOT     N/A         42  38  86  NE3     N/A
$$

WAZ028-151710-
LOWER COLUMBIA BASIN...WASHINGTON

CITY            SKY/WX      TMP DP  RH  WIND    PRES   REMARKS
HANFORD         LGT RAIN    42  39  89  S2      30.04S
PASCO           CLOUDY      46  40  79  S6      30.12R
PROSSER AWOS    N/A         43  43  100 S5      30.12S
RICHLAND AWOS   CLOUDY      46  40  79  SE7     30.12R
#BASIN CITY 5SW N/A         42  39  89  CALM    30.08S
#BENTON CITY    N/A         42  39  89  CALM    30.02S
#CONNELL 5N     N/A         39  38  96  SE2     30.11R
#CONNELL 5NW    N/A         40  39  96  S3      30.06R
#ELTOPIA 6NW    N/A         41  40  96  CALM    29.06R
#KAHLOTUS       N/A         39  38  96  W2      30.11S
#KENNEWICK 3S   N/A         42  39  89  CALM    30.12S
#PROSSER DOT    N/A         43  41  93  CALM    30.10S
#SAGEMOOR 2W    N/A         41  39  93  S5      29.97S
#TOUCHET 2S     N/A         42  41  96  CALM    30.11S
$$

WAZ029-151710-
FOOTHILLS OF THE BLUES...WASHINGTON

CITY            SKY/WX      TMP DP  RH  WIND    PRES   REMARKS
WALLA WALLA AP  CLOUDY      40  37  89  S7      30.10R
#CLYDE 6NW      N/A         39  38  96  S6      30.11R
#DELANEY DOT    N/A         41  37  86  SE3     30.12R
#PRESCOTT       N/A         42  40  93  CALM    30.12R
#WALLA WALLA 5E N/A         40  39  96  SE2     N/A
#WALLA WALLA U  N/A         43  40  89  CALM    30.14R
#WHITMAN MISSIONN/A         42  40  93  S1      30.12R
$$

WAZ030-151710-
BLUE MOUNTAINS...WASHINGTON

CITY            SKY/WX      TMP DP  RH  WIND    PRES   REMARKS
#DIXIE 5SE      N/A         33  32  96  SW2     29.96R
$$

ORZ009-041-WAZ024-151710-
COLUMBIA RIVER GORGE

CITY            SKY/WX      TMP DP  RH  WIND    PRES   REMARKS
HOOD RIVER AP   LGT DRIZZLE 43  41  93  CALM    30.13R
THE DALLES AP   CLOUDY      44  40  86  CALM    30.13R
#CELILO DOT     N/A         45  38  76  S3      N/A
#LYLE           N/A         45  41  86  CALM    30.14R
#MARYHILL       N/A         42  N/A N/A N2      29.97R
#RUFUS DOT      N/A         44  42  93  S2      N/A

$$

ORZ510-151710-
NORTH CENTRAL OREGON

CITY            SKY/WX      TMP DP  RH  WIND    PRES   REMARKS
#ANTELOPE       N/A         37  35  92  CALM    30.02R
#COW CYN RST AREN/A         37  37  100 CALM    N/A
#DUFUR          N/A         39  38  96  CALM    30.10R
#DUFUR 9E       N/A         37  36  96  SW2     30.18R
#GRASS VALLEY 1SN/A         39  38  96  W3      30.20R
#KENT DOT       N/A         39  34  82  S7      N/A
#SHANIKO 5WSW   N/A         38  38  100 S12     N/A    WCI 30
#TYGH VALLEY 2NEN/A         42  38  86  CALM    30.11R
#WAPANITIA AIRPON/A         40  38  92  CALM    30.14R
#WASCO DOT      N/A         41  41  100 NE5     N/A
#WASCO 5NE      N/A         39  38  96  W1      30.11R
$$

ORZ511-151710-
CENTRAL OREGON

CITY            SKY/WX      TMP DP  RH  WIND    PRES   REMARKS
BEND AIRPORT    PTCLDY      48  39  71  S8      30.10R
MADRAS AIRPORT  MOCLDY      39  37  92  CALM    30.13R
PRINEVILLE AP   PTCLDY      39  37  92  CALM    30.12R
REDMOND AIRPORT PTCLDY      39  35  85  SE3     30.10R
#ASHWOOD SCHOOL N/A         37  35  92  CALM    30.05R
#BEND-KIM LN    N/A         39  38  96  N1      30.09R
#PRINEVILLE     N/A         38  35  89  CALM    30.23R

$$


ORZ509-151710-
EAST SLOPES OF OREGON CASCADES

CITY            SKY/WX      TMP DP  RH  WIND    PRES   REMARKS
SISTERS AWOS    N/A         37  36  96  CALM    30.06R
#CAMP SHERMAN   N/A         37  34  89  CALM    30.18R
#LA PINE 4NW    N/A         36  32  85  CALM    29.93S
#LAVA BUTTE DOT N/A         44  30  58  SE1     N/A
#SISTERS ODOT   N/A         37  36  96  CALM    N/A
#WANOGA BUTTE D N/A         38  37  96  SW6     N/A

$$

ORZ044-151710-
LOWER COLUMBIA BASIN...OREGON

CITY            SKY/WX      TMP DP  RH  WIND    PRES   REMARKS
HERMISTON       CLOUDY      44  40  86  S3      30.11R
#BOARDMAN SCHOOLN/A         44  42  93  CALM    30.09R
#I-84 EX 198 DOTN/A         40  38  92  NE3     N/A
#UMATILLA       N/A         43  39  86  CALM    30.04S
$$

ORZ507-151710-
NORTHERN FOOTHILLS OF THE BLUES

CITY            SKY/WX      TMP DP  RH  WIND    PRES   REMARKS
PENDLETON AIRPT CLOUDY      41  37  86  S5      30.09R
#ADAMS 3WNW     N/A         38  36  92  SW3     30.15R
#ATHENA         N/A         37  36  96  SW2     30.16R
#CAYUSE         N/A         38  36  92  S2      30.14R
#HELIX SCHOOL   N/A         38  37  96  N7      30.13R
#HELIX 3N       N/A         37  36  96  S7      30.08S
#HOLDMAN 6E     N/A         37  37  100 S6      29.93R
#M-FREEWATER 5SEN/A         37  35  92  CALM    30.09R
#PDT AQUATIC CTRN/A         40  40  100 CALM    29.97R
#PDT SUNRIDGE   N/A         40  38  92  CALM    30.12R
#PENDLETON 6SE  N/A         39  37  92  CALM    30.09R
#TUTUILLA       N/A         37  35  92  CALM    30.16R
#UMAPINE 2E     N/A         41  39  93  CALM    30.13R
#WESTON SCHOOL  N/A         36  35  96  W2      29.84R

$$

ORZ508-151710-
SOUTHERN FOOTHILLS OF THE BLUES

CITY            SKY/WX      TMP DP  RH  WIND    PRES   REMARKS
#AJAX           N/A         57  51  80  CALM    30.23R
#CONDON 5W      N/A         38  37  96  SW8     30.03R
#HEPPNER EOC    N/A         38  36  92  E1      30.06S
#HEPPNER 4NE    N/A         38  37  96  CALM    30.12R
#LEXINGTON 2SE  N/A         42  38  86  CALM    30.05S
#RUGGS 2SW      N/A         35  34  96  CALM    30.16R

$$

ORZ502-503-151710-
BLUE MOUNTAINS

CITY            SKY/WX      TMP DP  RH  WIND    PRES   REMARKS
MEACHAM         CLOUDY      32  29  89  CALM    30.07R
#BATTLE MTN DOT N/A         38  33  82  S3      N/A
#LADD CYN SMT   N/A         42  34  73  SE10    N/A
#N POWDER DOT   N/A         N/A N/A N/A CALM    N/A
#TOLLGATE       N/A         40  32  73  CALM    30.09R
#TROY SCHOOL    N/A         34  32  92  CALM    29.98R
#WESTON 4E      N/A         40  39  96  CALM    30.10R
$$

ORZ505-151710-
JOHN DAY BASIN

CITY            SKY/WX      TMP DP  RH  WIND    PRES   REMARKS
JOHN DAY        MOCLDY      41  36  82  CALM    30.12R
#DAYVILLE SCHOOLN/A         36  33  89  CALM    30.07R
#MITCHELL 8NW   N/A         40  37  89  SW1     30.19R
#MONUMENT HS    N/A         35  32  89  CALM    30.08R
$$

ORZ506-151710-
OCHOCO AND JOHN DAY HIGHLANDS

CITY            SKY/WX      TMP DP  RH  WIND    PRES   REMARKS
#BUCK CREEK DOT N/A         41  29  62  CALM    N/A
#HORSE RIDGE DO N/A         39  33  79  SE5     N/A
#KEYES SMT DOT  N/A         44  32  62  S2      N/A
#PAULINA ODOT   N/A         33  N/A N/A CALM    N/A
#PRAIRIE CITY   N/A         34  30  85  E1      30.24R
#SENECA 9NW     N/A         29  27  92  CALM    30.17R
$$

ORZ049-151710-
GRANDE RONDE VALLEY

CITY            SKY/WX      TMP DP  RH  WIND    PRES   REMARKS
LA GRANDE       CLOUDY      39  34  82  CALM    30.10R
#COVE SCHOOL    N/A         42  36  79  CALM    30.09R
#COVE 6NW       N/A         34  31  89  CALM    30.10R
#IMBLER SCHOOL  N/A         34  32  92  CALM    30.04R
#ISLAND CITY 4N N/A         48  47  96  CALM    30.10R
#LADD CYN DOT   N/A         46  33  60  NE5     N/A
#UNION 1S       N/A         47  34  60  SE7     30.09R
$$

ORZ050-151710-
WALLOWA COUNTY

CITY            SKY/WX      TMP DP  RH  WIND    PRES   REMARKS
#IMNAHA SCHOOL  N/A         34  32  92  CALM    30.09R
#JOSEPH 3N      N/A         30  25  81  CALM    30.09R
#LOSTINE        N/A         30  28  92  CALM    29.99R
#LOSTINE 3SE    N/A         33  30  89  CALM    N/A
#MT HOWARD 8000 N/A         39  24  54  W7      30.11S
#WALLOWA LAKE   N/A         35  32  89  CALM    30.10R



$$


USA.gov is the U.S. government's official web portal to all federal, state and local government web resources and services.